User: anonymous   Login
Location: A�t Lahcen
(32.8243°N, 5.4246°W)
Time: 00:11:39
(UTC+00:00)
Language:

Cosmos 1943 Rocket - Orbit

View from above orbital plane
View from above orbital plane
View from above satellite
View from above satellite

Ground track
Ground track

The orbit data is extracted from the following two-line orbital elements,

1 19120U 88039B   21110.56129668 -.00000147  00000-0 -47243-4 0  9997
2 19120  71.0151 239.5834 0022747 201.7382 158.2780 14.19222363705229
Epoch (UTC): 20 April 2021 13:28:16
Eccentricity: 0.0022747
inclination: 71.0151°
perigee height: 811 km
apogee height: 844 km
right ascension of ascending node: 239.5834°
argument of perigee: 201.7382°
revolutions per day: 14.19222363
mean anomaly at epoch: 158.2780°
orbit number at epoch: 70522

The dashed part of the orbit path shows where the satellite is in the earth's shadow,  

DLR